FW6569 Weather Reports


time (UTC)temp
F
wind
direction
speed
knots
gust
knots
rain 1hr
in
rain 24hr
in
rain mn
in
humidity
%
barometer
mb
20260505223539 59 197 9.6 15.6 0.12 0.76 0.76 96 1008.0
20260505222539 60 198 7.0 9.6 0.15 0.75 0.75 97 1008.0
20260505221519 60 212 4.3 7.0 0.20 0.74 0.74 97 1008.1
20260505220539 60 194 5.2 8.7 0.21 0.72 0.72 97 1008.1
20260505215519 60 201 5.2 7.8 0.22 0.70 0.70 97 1008.1
20260505214540 60 204 4.3 6.1 0.19 0.67 0.67 97 1008.1
20260505213519 60 203 5.2 7.8 0.16 0.64 0.64 96 1008.2
20260505212519 60 205 5.2 8.7 0.12 0.60 0.60 96 1008.4
20260505211519 60 214 5.2 7.0 0.06 0.54 0.54 95 1008.5
20260505210519 60 212 5.2 7.8 0.03 0.51 0.51 95 1008.5
20260505205519 60 212 6.1 8.7 0.00 0.48 0.48 94 1008.5
20260505204519 61 194 7.0 12.2 0.00 0.48 0.48 94 1008.5
20260505203519 61 199 7.0 9.6 0.00 0.48 0.48 94 1008.6
20260505202539 61 195 6.1 8.7 0.01 0.48 0.48 94 1008.6
20260505201519 61 202 6.1 7.8 0.02 0.48 0.48 94 1008.6
20260505200519 61 196 5.2 7.0 0.03 0.48 0.48 94 1008.6
20260505195519 61 194 4.3 6.1 0.06 0.48 0.48 95 1008.7
20260505194519 60 212 5.2 7.0 0.07 0.48 0.48 94 1008.9
20260505193520 60 195 4.3 6.1 0.08 0.48 0.48 94 1008.9
20260505192520 60 182 4.3 6.1 0.09 0.47 0.47 94 1009.1
20260505191519 60 208 4.3 6.1 0.10 0.46 0.46 94 1009.3
20260505190520 60 201 3.5 5.2 0.09 0.45 0.45 94 1009.5
20260505185520 60 185 4.3 5.2 0.06 0.42 0.42 93 1009.6
20260505184540 60 209 2.6 3.5 0.11 0.41 0.41 93 1009.7
20260505183520 60 203 3.5 4.3 0.11 0.40 0.40 92 1009.5
20260505182519 60 201 5.2 7.0 0.09 0.38 0.38 91 1009.6
20260505181519 60 208 7.8 9.6 0.07 0.36 0.36 90 1009.8
20260505180520 60 213 7.8 12.2 0.07 0.36 0.36 90 1009.8
20260505175539 60 219 7.0 10.4 0.07 0.36 0.36 87 1010.0
20260505174540 62 234 7.8 12.2 0.01 0.30 0.30 81 1010.1
20260505173520 63 199 7.0 8.7 0.00 0.29 0.29 80 1009.9
20260505172520 62 201 6.1 9.6 0.00 0.29 0.29 79 1009.8
20260505171520 63 204 6.1 7.8 0.00 0.29 0.29 79 1009.8
20260505170530 63 205 9.6 12.2 0.00 0.29 0.29 78 1010.0
20260505165520 63 197 6.1 8.7 0.00 0.29 0.29 79 1009.9
20260505164520 63 193 7.0 8.7 0.00 0.29 0.29 79 1009.8
20260505163520 63 206 7.8 10.4 0.00 0.29 0.29 78 1009.9
20260505162600 63 187 6.1 9.6 0.00 0.29 0.29 79 1009.8
20260505161520 63 202 5.2 7.0 0.00 0.29 0.29 80 1009.9
20260505160520 63 191 7.8 11.3 0.00 0.29 0.29 80 1009.9
20260505152550 62 203 7.0 9.6 0.00 0.29 0.29 83 1010.0
20260505151520 62 191 7.0 9.6 0.00 0.29 0.29 82 1009.9
20260505150520 62 190 7.0 9.6 0.00 0.29 0.29 82 1009.8
20260505140520 62 199 5.2 7.8 0.00 0.29 0.29 85 1009.5
20260505124520 57 204 4.3 6.1 0.00 0.28 0.28 93 1009.2
20260505123520 57 208 1.7 5.2 0.00 0.28 0.28 94 1009.1
20260505122520 57 176 0.9 3.5 0.00 0.28 0.28 94 1008.6
20260505121520 56 159 4.3 6.1 0.00 0.28 0.28 95 1008.5
20260505120521 56 151 3.5 5.2 0.00 0.28 0.28 96 1008.9
20260505115520 56 194 1.7 3.5 0.00 0.28 0.28 96 1009.0
20260505114520 56 137 4.3 6.1 0.00 0.28 0.28 96 1008.8
20260505113520 56 0.0 0.0 0.00 0.28 0.28 96 1009.7
20260505112521 56 207 2.6 4.3 0.01 0.28 0.28 96 1009.8
20260505111601 56 221 1.7 4.3 0.02 0.28 0.28 96 1009.6
20260505110521 56 210 2.6 5.2 0.02 0.28 0.28 96 1009.3
20260505100520 56 153 3.5 4.3 0.14 0.26 0.26 96 1009.3
20260505095521 56 134 2.6 3.5 0.17 0.25 0.25 96 1009.7
20260505094520 56 252 0.0 1.7 0.17 0.24 0.24 95 1010.0
20260505093521 57 150 1.7 2.6 0.17 0.22 0.22 95 1010.0
20260505092541 57 334 0.9 2.6 0.17 0.19 0.19 94 1010.4
20260505091520 57 358 1.7 3.5 0.15 0.15 0.15 94 1010.7
20260505090521 58 329 3.5 6.1 0.12 0.12 0.12 93 1010.6
20260505085521 58 312 2.6 5.2 0.08 0.08 0.08 91 1010.4
20260505084521 58 134 0.9 3.5 0.07 0.07 0.07 90 1010.2
20260505083521 59 358 3.5 7.8 0.05 0.05 0.05 86 1010.0
20260505082520 62 348 4.3 9.6 0.02 0.02 0.02 79 1009.8
20260505081521 62 357 4.3 8.7 0.00 0.00 0.00 73 1008.9
20260505080521 62 320 0.9 1.7 0.00 0.00 0.00 70 1008.0
20260505075521 63 265 0.9 2.6 0.00 0.00 0.00 68 1007.5
20260505074521 63 80 0.9 2.6 0.00 0.00 0.00 67 1007.1
20260505073521 63 78 0.9 2.6 0.00 0.00 0.00 66 1007.4
20260505072521 64 344 0.0 1.7 0.00 0.00 0.00 64 1007.8
20260505071521 65 348 0.9 1.7 0.00 0.00 0.00 62 1007.5
20260505070521 66 337 0.9 2.6 0.00 0.00 0.00 60 1007.4
20260505065521 66 231 5.2 7.0 0.00 0.00 0.00 58 1007.1
20260505064521 66 202 7.0 10.4 0.00 0.00 0.00 57 1007.1
20260505063521 66 193 7.0 11.3 0.00 0.00 0.00 58 1007.0
20260505062541 66 203 6.1 9.6 0.00 0.00 0.00 58 1006.9
20260505061521 66 210 7.0 9.6 0.00 0.00 0.00 58 1007.1
20260505060521 66 197 7.8 12.2 0.00 0.00 0.00 58 1006.9
20260505055521 66 198 7.0 8.7 0.00 0.00 0.00 57 1006.9
20260505054521 67 211 7.8 13.0 0.00 0.00 0.00 57 1007.0
20260505053521 67 207 8.7 13.0 0.00 0.00 0.00 56 1006.8
20260505052521 67 204 7.8 11.3 0.00 0.00 0.00 55 1006.7
20260505051521 67 208 10.4 16.5 0.00 0.00 0.00 55 1006.5
20260505050521 68 200 9.6 13.9 0.00 0.00 0.00 55 1006.4
20260505041521 68 194 7.8 14.8 0.00 0.00 0.00 54 1006.4
20260505040521 68 197 8.7 14.8 0.00 0.00 0.00 54 1006.7
20260505035542 69 200 7.0 9.6 0.00 0.00 0.00 54 1006.8
20260505034521 69 208 8.7 13.0 0.00 0.00 0.00 54 1007.1
20260505033521 69 209 7.8 11.3 0.00 0.00 0.00 54 1007.2
20260505032521 69 204 8.7 11.3 0.00 0.00 0.00 55 1007.2
20260505031521 69 195 7.8 11.3 0.00 0.00 0.00 54 1007.3
20260505030522 69 206 7.0 8.7 0.00 0.00 0.00 54 1007.3
20260505025521 69 207 7.8 10.4 0.00 0.00 0.00 54 1007.0
20260505024521 69 206 7.8 8.7 0.00 0.00 0.00 54 1006.9
20260505023522 69 199 7.8 11.3 0.00 0.00 0.00 54 1006.8
20260505022521 69 204 7.8 11.3 0.00 0.00 0.00 55 1006.8
20260505021521 69 199 7.8 12.2 0.00 0.00 0.00 55 1006.5
20260505020522 69 203 7.0 9.6 0.00 0.00 0.00 56 1006.3
20260505015521 69 212 7.0 10.4 0.00 0.00 0.00 56 1006.2
20260505014522 69 188 6.1 8.7 0.00 0.00 0.00 56 1005.9
20260505013601 70 203 7.0 10.4 0.00 0.00 0.00 55 1005.7
20260505012522 70 196 7.0 10.4 0.00 0.00 0.00 54 1005.6
20260505011522 70 200 7.8 10.4 0.00 0.00 0.00 54 1005.5
20260505010522 70 211 6.1 7.8 0.00 0.00 0.00 53 1005.5
20260505005522 71 201 5.2 9.6 0.00 0.00 0.00 52 1005.4
20260505004522 71 199 6.1 7.8 0.00 0.00 0.00 51 1005.5
20260505003522 72 198 6.1 7.8 0.00 0.00 0.00 49 1005.6
20260505002522 72 195 7.0 10.4 0.00 0.00 0.00 49 1005.5
20260505001522 72 201 7.0 12.2 0.00 0.00 0.00 48 1005.6
20260505000522 73 208 9.6 14.8 0.00 0.00 0.00 48 1005.7
20260504235522 73 207 8.7 11.3 0.00 0.00 0.00 48 1005.7
20260504234522 74 211 7.0 9.6 0.00 0.00 0.00 47 1005.8
20260504233522 74 212 9.6 13.9 0.00 0.00 0.00 48 1006.1
20260504232522 74 204 8.7 13.9 0.00 0.00 0.00 49 1006.3
20260504231542 74 205 9.6 13.0 0.00 0.00 0.00 48 1006.4
20260504230542 74 221 7.0 10.4 0.00 0.00 0.00 49 1006.5
20260504225522 74 207 7.0 9.6 0.00 0.00 0.00 50 1006.6
20260504224522 75 208 7.8 10.4 0.00 0.00 0.00 49 1006.7